[[{"header":{"parameterUnit":"m.s-1","parameterCategory":1,"la1":30.2991,"la2":30.254,"lo1":-89.0895,"lo2":-89.0444,"dy":0.0017,"dx":0.0017,"nx":28,"ny":28,"refTime":"2025-01-21T09:00:00:Z","depth":0,"parameterNumber":2,"parameterNumberName":"U-component_of_WINDS"},"data":[0,0,0,0,0,0,0,0,0,0,0,0,0,0,0,0,0,0,0,0,0,0,0,0,0,0,0,0,0,0,0,0,0,0,0,0,0,0,0,0,0,0,0,0,0,0,0,0,0,0,0,0,0,0,0,0,0,0,-0.3882,-0.3885,0,-0.4134,-0.4137,-0.414,-0.4221,-0.422,-0.4219,-0.4218,-0.4479,-0.4487,-0.4495,0,0,0,0,0,0,0,0,0,0,0,0,0,-0.3473,-0.348,-0.3882,-0.3885,-0.3888,-0.4134,-0.4137,-0.4141,-0.4221,-0.422,-0.4218,-0.4217,-0.4476,-0.4486,-0.4496,0,0,0,0,0,0,0,0,0,0,0,0,0,-0.368,-0.3482,-0.3881,-0.3958,-0.3967,-0.4133,-0.4137,-0.4142,-0.4221,-0.422,-0.4218,-0.4216,-0.4473,-0.4485,-0.4497,-0.4606,0,0,-0.4534,-0.4539,0,0,0,0,0,0,0,0,-0.3669,-0.3695,-0.3944,-0.3953,-0.3964,-0.4144,-0.4089,-0.4297,-0.4222,-0.4125,-0.4218,-0.4216,-0.4369,-0.439,-0.4441,-0.4618,-0.4629,-0.4535,-0.4542,-0.4547,-0.4551,0,0,0,0,0,0,0,-0.3654,-0.3685,-0.3982,-0.3947,-0.3959,-0.3981,-0.4008,-0.4129,-0.4254,-0.4133,-0.414,-0.4168,-0.4375,-0.4429,-0.4448,-0.4633,-0.4534,-0.4545,-0.4553,-0.4557,-0.4913,-0.4915,0,0,0,0,0,0,-0.3626,-0.3672,-0.3974,-0.3989,-0.3809,-0.3989,-0.402,-0.4088,-0.4253,-0.4276,-0.417,-0.4171,-0.4409,-0.4434,-0.4457,-0.4597,-0.4547,-0.4559,-0.4565,-0.491,-0.4913,-0.4915,0,0,0,0,0,0,-0.3617,-0.3652,-0.3964,-0.3833,-0.3874,-0.3998,-0.4074,-0.4094,-0.4149,-0.428,-0.4303,-0.4202,-0.4409,-0.444,-0.4568,-0.4607,-0.4564,-0.4575,-0.4908,-0.4911,-0.4914,-0.4875,0,0,0,0,0,0,-0.3605,-0.3649,-0.3691,-0.3833,-0.3881,-0.407,-0.4076,-0.41,-0.4169,-0.4173,-0.4317,-0.4339,-0.441,-0.455,-0.458,-0.4623,-0.4584,-0.4905,-0.4909,-0.4913,-0.4874,-0.4877,-0.4879,0,0,0,0,0,-0.359,-0.3671,-0.3693,-0.3729,-0.3936,-0.4072,-0.4099,-0.4178,-0.4172,-0.4216,-0.43,-0.4335,-0.4597,-0.4562,-0.4597,-0.4644,-0.4903,-0.4908,-0.4913,-0.4872,-0.4876,-0.4879,0,0,0,0,0,0,-0.3532,-0.3691,-0.3717,-0.3845,-0.3944,-0.4085,-0.4143,-0.4179,-0.4283,-0.4283,-0.4378,-0.441,-0.4531,-0.46,-0.4558,-0.4758,-0.4752,-0.4764,-0.4709,-0.4713,-0.4716,-0.4698,-0.4594,0,0,0,0,0,-0.3533,-0.3629,-0.3763,-0.3864,-0.3912,-0.4018,-0.408,-0.4132,-0.4239,-0.4282,-0.4376,-0.4479,-0.4584,-0.4652,-0.4757,-0.4883,-0.4916,-0.4932,-0.4935,-0.4936,-0.4947,-0.5019,-0.5028,-0.4932,-0.4932,-0.4932,0,0,-0.3538,-0.3637,-0.3692,-0.3854,-0.3937,-0.4035,-0.4053,-0.4157,-0.4231,-0.4298,-0.4425,-0.4496,-0.4618,-0.4745,-0.4806,-0.4807,-0.498,-0.4943,-0.4943,-0.4953,-0.5025,-0.5034,-0.5042,-0.4935,-0.4934,-0.4934,0,0,-0.3598,-0.3682,-0.3775,-0.3857,-0.3981,-0.4051,-0.4073,-0.4209,-0.4259,-0.4386,-0.4439,-0.4529,-0.4708,-0.4793,-0.4859,-0.4949,-0.4985,-0.498,-0.4996,-0.5066,-0.5073,-0.5081,-0.5114,-0.5125,-0.4989,-0.4989,-0.4989,0,-0.359,-0.3739,-0.3819,-0.3919,-0.3989,-0.4052,-0.4148,-0.4224,-0.4376,-0.4424,-0.4421,-0.4648,-0.4734,-0.4883,-0.4904,-0.4955,-0.4984,-0.4966,-0.5065,-0.5074,-0.5082,-0.5114,-0.5127,-0.4988,-0.4988,-0.4988,-0.4988,0,-0.3723,-0.3825,-0.3885,-0.403,-0.4106,-0.4204,-0.4299,-0.4367,-0.4411,-0.4482,-0.4611,-0.4716,-0.4843,-0.4882,-0.4927,-0.5037,-0.5033,-0.5046,-0.5043,-0.5088,-0.5121,-0.5134,-0.4986,-0.4986,-0.4987,-0.4987,0,0,-0.3756,-0.3941,-0.3962,-0.4028,-0.4169,-0.425,-0.435,-0.4473,-0.453,-0.4632,-0.4719,-0.4869,-0.4882,-0.4957,-0.5012,-0.5073,-0.5138,-0.508,-0.5084,-0.5088,-0.5267,-0.5257,-0.527,-0.5162,-0.5164,-0.5167,-0.5257,0,-0.3836,-0.4016,-0.409,-0.4237,-0.4333,-0.4393,-0.4481,-0.4576,-0.4644,-0.4736,-0.4812,-0.4917,-0.4925,-0.4971,-0.5034,-0.5117,-0.5176,-0.5111,-0.5246,-0.5249,-0.5216,-0.5287,-0.5278,-0.5359,-0.527,-0.5273,-0.5274,0,-0.3954,-0.4055,-0.4211,-0.4339,-0.4382,-0.4459,-0.4578,-0.4664,-0.4774,-0.4819,-0.4902,-0.4953,-0.5061,-0.5047,-0.5198,-0.5152,-0.5211,-0.526,-0.5265,-0.5283,-0.5266,-0.5309,-0.5386,-0.5399,-0.5295,-0.5293,-0.5292,0,-0.3964,-0.414,-0.4256,-0.431,-0.4462,-0.4515,-0.4581,-0.4689,-0.4758,-0.4861,-0.4907,-0.5021,-0.5085,-0.5173,-0.5254,-0.5236,-0.5397,-0.539,-0.5439,-0.5437,-0.5473,-0.547,-0.5562,-0.5506,-0.5506,-0.5506,-0.5505,0,-0.4047,-0.4141,-0.4263,-0.4334,-0.4441,-0.4524,-0.4627,-0.4698,-0.4793,-0.488,-0.4938,-0.5019,-0.512,-0.5213,-0.5277,-0.5393,-0.542,-0.5461,-0.5477,-0.5457,-0.5452,-0.5499,-0.5496,-0.5509,-0.5508,-0.5508,-0.5507,0,-0.4079,-0.4164,-0.4294,-0.4427,-0.4462,-0.4535,-0.4649,-0.4721,-0.479,-0.4899,-0.493,-0.5039,-0.5152,-0.524,-0.5388,-0.5431,-0.5553,-0.557,-0.5516,-0.5525,-0.5569,-0.5565,-0.5698,-0.572,-0.5646,-0.5646,-0.5647,0,-0.4127,-0.42,-0.4339,-0.4401,-0.4466,-0.4565,-0.4635,-0.4719,-0.479,-0.4919,-0.4976,-0.5093,-0.5191,-0.5369,-0.5462,-0.5575,-0.5596,-0.5635,-0.5614,-0.5591,-0.5599,-0.5595,-0.5603,-0.5638,-0.5639,-0.5639,-0.5639,0,-0.4205,-0.4242,-0.434,-0.4453,-0.4534,-0.4627,-0.4722,-0.4769,-0.4871,-0.4947,-0.5062,-0.5138,-0.5288,-0.5403,-0.5526,-0.5595,-0.5635,-0.5644,-0.5662,-0.5644,-0.561,-0.563,-0.5525,-0.5642,-0.5642,-0.5641,-0.5641,-0.5641,-0.4248,-0.4315,-0.4424,-0.4531,-0.461,-0.4696,-0.4771,-0.4848,-0.4945,-0.5073,-0.5117,-0.5236,-0.5343,-0.5511,-0.5581,-0.5676,-0.5678,-0.5703,-0.571,-0.5716,-0.5714,-0.5592,-0.5698,-0.5698,-0.5698,-0.5698,-0.5699,0,-0.433,-0.4402,-0.4499,-0.4628,-0.4712,-0.474,-0.4845,-0.4914,-0.5018,-0.5114,-0.5209,-0.5341,-0.5453,-0.5554,-0.5671,-0.5727,-0.5748,-0.5755,-0.5753,-0.5769,-0.5705,-0.5679,-0.5736,-0.5736,-0.5736,-0.5736,-0.5736,-0.5736,-0.4383,-0.4499,-0.4549,-0.4705,-0.4777,-0.4893,-0.4951,-0.5031,-0.5108,-0.5253,-0.5346,-0.541,-0.5509,-0.5633,-0.5737,-0.5764,-0.5805,-0.5807,-0.5839,-0.5778,-0.5773,-0.5769,-0.5745,-0.5815,-0.5815,-0.5895,-0.5896,-0.5896]},{"header":{"parameterUnit":"m.s-1","parameterCategory":1,"la1":30.2991,"la2":30.254,"lo1":-89.0895,"lo2":-89.0444,"dy":0.0017,"dx":0.0017,"nx":28,"ny":28,"refTime":"2025-01-21T09:00:00:Z","depth":0,"parameterNumber":3,"parameterNumberName":"V-component_of_WINDS"},"data":[0,0,0,0,0,0,0,0,0,0,0,0,0,0,0,0,0,0,0,0,0,0,0,0,0,0,0,0,0,0,0,0,0,0,0,0,0,0,0,0,0,0,0,0,0,0,0,0,0,0,0,0,0,0,0,0,0,0,-9.6945,-9.6949,0,-9.7246,-9.7249,-9.7253,-9.7197,-9.7191,-9.7186,-9.7181,-9.7482,-9.7494,-9.7507,0,0,0,0,0,0,0,0,0,0,0,0,0,-9.6315,-9.6327,-9.6945,-9.6949,-9.6953,-9.7245,-9.725,-9.7254,-9.7198,-9.7191,-9.7185,-9.7178,-9.7478,-9.7493,-9.7508,0,0,0,0,0,0,0,0,0,0,0,0,0,-9.6599,-9.6331,-9.6944,-9.696,-9.6964,-9.7245,-9.725,-9.7255,-9.7199,-9.7191,-9.7183,-9.7175,-9.7472,-9.7491,-9.7511,-9.7792,0,0,-9.757,-9.7579,0,0,0,0,0,0,0,0,-9.6583,-9.6622,-9.6954,-9.696,-9.6965,-9.7176,-9.7138,-9.7435,-9.7201,-9.711,-9.7181,-9.7171,-9.7386,-9.7412,-9.7486,-9.7806,-9.7819,-9.7572,-9.7584,-9.7592,-9.7598,0,0,0,0,0,0,0,-9.6563,-9.6609,-9.7064,-9.6959,-9.6966,-9.695,-9.6981,-9.7194,-9.7289,-9.7117,-9.7114,-9.715,-9.7387,-9.7467,-9.7493,-9.7823,-9.7571,-9.7589,-9.7601,-9.7608,-9.8388,-9.8397,0,0,0,0,0,0,-9.654,-9.6593,-9.7054,-9.7073,-9.6751,-9.6968,-9.7003,-9.7116,-9.7287,-9.7305,-9.7157,-9.7147,-9.7438,-9.747,-9.7503,-9.7844,-9.7592,-9.761,-9.7621,-9.8379,-9.839,-9.84,0,0,0,0,0,0,-9.6526,-9.6581,-9.7042,-9.6832,-9.689,-9.6987,-9.7115,-9.7126,-9.7206,-9.7317,-9.7333,-9.7222,-9.7433,-9.7475,-9.7721,-9.7854,-9.7619,-9.7637,-9.8369,-9.8383,-9.8395,-9.8528,0,0,0,0,0,0,-9.6509,-9.6577,-9.6687,-9.6835,-9.6901,-9.7258,-9.7123,-9.7138,-9.7241,-9.723,-9.7382,-9.7399,-9.743,-9.7692,-9.774,-9.7876,-9.7652,-9.8357,-9.8375,-9.8391,-9.8513,-9.8545,-9.8572,0,0,0,0,0,-9.6486,-9.6711,-9.6693,-9.6749,-9.7041,-9.7266,-9.7303,-9.7336,-9.7252,-9.7362,-9.7433,-9.7394,-9.7831,-9.7718,-9.7771,-9.7915,-9.8349,-9.837,-9.839,-9.8499,-9.8539,-9.8572,0,0,0,0,0,0,-9.6573,-9.673,-9.6712,-9.6992,-9.7116,-9.7256,-9.7396,-9.7376,-9.7525,-9.7509,-9.7541,-9.7575,-9.7825,-9.7894,-9.7765,-9.8196,-9.8078,-9.811,-9.8143,-9.8181,-9.821,-9.8189,-9.7668,0,0,0,0,0,-9.6625,-9.6797,-9.6924,-9.7158,-9.7222,-9.7299,-9.7397,-9.7412,-9.7541,-9.7593,-9.7681,-9.7806,-9.7971,-9.8079,-9.8237,-9.8521,-9.8553,-9.8647,-9.8676,-9.87,-9.8728,-9.8883,-9.8926,-9.8467,-9.8467,-9.8466,0,0,-9.6734,-9.6841,-9.6947,-9.7179,-9.7277,-9.7452,-9.7343,-9.7533,-9.7663,-9.7621,-9.7859,-9.7928,-9.8069,-9.8335,-9.8457,-9.8401,-9.8862,-9.8726,-9.8745,-9.876,-9.8909,-9.8952,-9.8991,-9.8481,-9.8478,-9.8476,0,0,-9.7022,-9.7121,-9.7327,-9.7428,-9.7578,-9.7628,-9.7677,-9.7821,-9.7866,-9.8106,-9.8078,-9.8231,-9.8515,-9.8617,-9.8706,-9.9031,-9.9002,-9.9081,-9.9238,-9.9389,-9.9425,-9.9458,-9.9575,-9.9616,-9.9108,-9.9109,-9.9109,0,-9.7138,-9.7404,-9.7435,-9.7629,-9.7731,-9.7703,-9.7911,-9.8006,-9.82,-9.827,-9.8204,-9.8561,-9.8653,-9.8943,-9.9023,-9.9095,-9.9152,-9.9065,-9.9418,-9.9451,-9.9481,-9.9593,-9.9637,-9.9117,-9.9116,-9.9115,-9.9115,0,-9.7539,-9.7723,-9.7871,-9.8062,-9.818,-9.838,-9.844,-9.8555,-9.8559,-9.8614,-9.8858,-9.8968,-9.9148,-9.9217,-9.9222,-9.9508,-9.9469,-9.941,-9.9292,-9.9534,-9.9639,-9.9682,-9.913,-9.9127,-9.9124,-9.9122,0,0,-9.7892,-9.8097,-9.8152,-9.8238,-9.8401,-9.8543,-9.874,-9.8919,-9.9017,-9.9151,-9.9317,-9.9557,-9.9505,-9.9605,-9.962,-9.9753,-10.0005,-9.9678,-9.9682,-9.9736,-10.0327,-10.0371,-10.042,-9.9985,-9.9993,-10.0,-10.0315,0,-9.8197,-9.8549,-9.8583,-9.8897,-9.9067,-9.9042,-9.9214,-9.9331,-9.9388,-9.9538,-9.9598,-9.977,-9.9687,-9.9748,-9.9877,-9.9947,-10.0124,-9.9924,-10.0138,-10.0146,-10.0106,-10.0476,-10.0523,-10.0816,-10.0357,-10.0364,-10.0369,0,-9.86,-9.8749,-9.9081,-9.9221,-9.9293,-9.9448,-9.9614,-9.9758,-9.989,-9.9921,-10.0034,-10.0032,-10.0232,-10.0105,-10.0382,-10.0245,-10.0334,-10.0381,-10.0393,-10.0416,-10.0273,-10.0509,-10.091,-10.0955,-10.0434,-10.0429,-10.0424,0,-9.8826,-9.9108,-9.9344,-9.9418,-9.9587,-9.9696,-9.9771,-9.9895,-10.0,-10.0143,-10.0211,-10.0376,-10.0466,-10.0592,-10.0633,-10.0536,-10.0908,-10.0784,-10.0939,-10.0938,-10.102,-10.1015,-10.1442,-10.1075,-10.1074,-10.1073,-10.1072,0,-9.9164,-9.9369,-9.9448,-9.9594,-9.9821,-9.9856,-10.008,-10.0148,-10.0258,-10.0415,-10.0401,-10.0547,-10.0591,-10.0745,-10.0777,-10.1001,-10.1041,-10.1071,-10.1078,-10.1074,-10.1071,-10.1134,-10.1116,-10.1085,-10.1082,-10.108,-10.1078,0,-9.9457,-9.9518,-9.9774,-9.9912,-9.9952,-10.0114,-10.0231,-10.037,-10.0423,-10.0621,-10.0669,-10.0752,-10.0932,-10.0985,-10.12,-10.1221,-10.1485,-10.1472,-10.1442,-10.1443,-10.1595,-10.1581,-10.208,-10.2148,-10.1734,-10.1738,-10.1741,0,-9.967,-9.9827,-9.9983,-10.0088,-10.0168,-10.0337,-10.0445,-10.0483,-10.0596,-10.0757,-10.0876,-10.1054,-10.1199,-10.1487,-10.1565,-10.1729,-10.1721,-10.1885,-10.1746,-10.1737,-10.1725,-10.1716,-10.1732,-10.1911,-10.1916,-10.1919,-10.1922,0,-10.0041,-10.0064,-10.0221,-10.039,-10.0519,-10.0652,-10.078,-10.0866,-10.0923,-10.1049,-10.1235,-10.1347,-10.1568,-10.1745,-10.1911,-10.1984,-10.1964,-10.1965,-10.201,-10.2009,-10.1985,-10.2001,-10.1515,-10.1954,-10.1951,-10.1948,-10.1947,-10.1945,-10.0302,-10.044,-10.0573,-10.0748,-10.0848,-10.0969,-10.1106,-10.1177,-10.1333,-10.1518,-10.153,-10.173,-10.1856,-10.2078,-10.216,-10.2316,-10.2268,-10.2332,-10.2349,-10.2365,-10.2378,-10.1959,-10.2346,-10.2345,-10.2344,-10.2344,-10.2343,0,-10.0674,-10.0757,-10.0918,-10.1099,-10.1237,-10.1206,-10.1346,-10.1462,-10.164,-10.176,-10.1903,-10.2115,-10.2286,-10.2378,-10.2547,-10.2654,-10.2649,-10.2698,-10.2691,-10.2708,-10.2411,-10.2356,-10.2699,-10.2699,-10.2699,-10.2699,-10.2699,-10.2699,-10.0884,-10.1118,-10.1155,-10.1438,-10.1519,-10.1718,-10.18,-10.191,-10.2006,-10.2245,-10.2388,-10.2447,-10.2555,-10.2732,-10.2887,-10.2909,-10.2973,-10.3028,-10.3045,-10.2766,-10.2729,-10.2695,-10.2643,-10.3041,-10.3042,-10.3329,-10.3332,-10.3334]}]]